Location: Waco, TX
(31.5480°N, 97.1670°W)
Time: 21:12:35
(UTC-05:00)

Tiangong 1 - Visible Passes

Search period start: 23 October 2017 00:00
Search period end: 02 November 2017 00:00
Orbit: 292 x 319 km, 42.8° (Epoch: 23 October)

Date Brightness Start Highest point End Pass type
(mag) Time Alt. Az. Time Alt. Az. Time Alt. Az.
28 Oct 3.7 07:12:11 10° S 07:13:43 14° SE 07:15:16 10° ESE visible
31 Oct 2.8 06:07:34 23° SE 06:07:34 23° SE 06:09:41 10° E visible
01 Nov 1.4 06:17:21 51° E 06:17:21 51° E 06:19:28 10° ENE visible
